This is the latest recevied weather packets stored in our database for station/object WX9WTF. If no packets are shown the sender has not sent any weather packets the latest 10 day(s).
| Time | Temp. | Humidity | Pressure | Rain* | Wind** | Luminosity | Snow |
|---|---|---|---|---|---|---|---|
| 1778073140 | 8.89° C | 86% | 1018.4 hPa | 0 mm | - | 198 W/m² | - |
| 1778072837 | 8.89° C | 88% | 1018.6 hPa | 0 mm | - | 216 W/m² | - |
| 1778072534 | 8.33° C | 89% | 1018.7 hPa | 0 mm | - | 253 W/m² | - |
| 1778072232 | 8.33° C | 90% | 1018.4 hPa | 0 mm | - | 161 W/m² | - |
| 1778071930 | 8.33° C | 90% | 1018.3 hPa | 0 mm | - | 108 W/m² | - |
| 1778071628 | 7.78° C | 90% | 1018.2 hPa | 0 mm | - | 127 W/m² | - |
| 1778071326 | 7.78° C | 91% | 1018.2 hPa | 0 mm | - | 49 W/m² | - |
| 1778071022 | 7.78° C | 90% | 1018.2 hPa | 0 mm | - | 67 W/m² | - |
| 1778070721 | 7.78° C | 91% | 1018.2 hPa | 0 mm | - | 63 W/m² | - |
| 1778070417 | 7.78° C | 91% | 1018.3 hPa | 0 mm | - | 71 W/m² | - |
| 1778070116 | 7.78° C | 91% | 1017.6 hPa | 0 mm | - | 32 W/m² | - |
| 1778069813 | 7.22° C | 90% | 1017.6 hPa | 0 mm | - | 74 W/m² | - |
| 1778069508 | 7.22° C | 90% | 1017.3 hPa | 0 mm | - | 45 W/m² | - |
| 1778069207 | 7.22° C | 91% | 1017.2 hPa | 0 mm | - | 23 W/m² | - |
| 1778068904 | 7.22° C | 90% | 1017 hPa | 0 mm | - | 27 W/m² | - |
| 1778068603 | 7.22° C | 90% | 1016.9 hPa | 0 mm | - | 24 W/m² | - |
| 1778068300 | 7.22° C | 89% | 1017.2 hPa | 0 mm | - | 17 W/m² | - |
| 1778067997 | 7.22° C | 89% | 1017.2 hPa | 0 mm | - | 13 W/m² | - |
| 1778067695 | 7.22° C | 89% | 1017.1 hPa | 0 mm | - | 10 W/m² | - |
| 1778067393 | 7.22° C | 91% | 1017 hPa | 0 mm | - | 6 W/m² | - |
| 1778067090 | 7.22° C | 91% | 1017.3 hPa | 0 mm | - | 5 W/m² | - |
| 1778066786 | 7.22° C | 91% | 1017.1 hPa | 0 mm | - | 3 W/m² | - |
| 1778066484 | 7.22° C | 90% | 1017.1 hPa | 0 mm | - | 2 W/m² | - |
| 1778066182 | 7.22° C | 90% | 1017.4 hPa | 0 mm | - | 1 W/m² | - |
| 1778065879 | 7.22° C | 90% | 1017.1 hPa | 0 mm | - | 0 W/m² | - |
* Rain latest hour (hover to see other rain measurements)
** Current wind speed in m/s (hover to see current wind gust speed)